Погода в Сортавале

Погода в Сортавале : погода сейчас, прогноз погоды и архив. Всё, что Вы хотите узнать о погоде в Сортавале!

Хотите узнать прогноз погоды в Сортавале? Тогда Вам сюда: Погода в Сортавале

Поиск расширенной информации на нашем сайте:

Другие новости

Новости СМИ2

Главная страница сайта

Новости сайта

03.07.2017

Напоминаем, что на нашем специализированном сайте Метеоцентр.Азия вы можете получить высокодетализированные автоматические прогнозы погоды по пунктам России, СНГ и мира в авиационном формате (включающие направление и скорость ветра, видимость, явления погоды, количество и форму облачности, нижнюю и верхнюю границу облачности).

Рекомендуем: Детальное описание автоваз официальный у нас.

Погода в Сортавале - сегодня

Время (UTC), дата Ветер
(°,м/с) 
Видим.   Явления Облачность Т
(°С)
Тd
(°С)
f(%) Тe
(°С)
Pmin
(гПа)
dP
(гПа)
Po
(мм)
O2
(г/м3)
Тmin Tmax R s Состояние
почвы
15 19.02.18 360 (С) 20000 м    8/0 средняя, верхняя 
[Ac lent|Ci fib]
-8.2 -11.7 76 -10  1025  0.9  767  320           
21 19.02.18 280 (З) 50000 м    9/0 средняя, верхняя 
[Ac trans|Ci fib]
-10.2 -13.1 79 -10  1025.4  767  322           
00 20.02.18 300 (СЗ) 50000 м    9/0 средняя, верхняя 
[Ac trans|Ci sp]
-12 -14.8 80 -14  1025.7  0.3  767  325           
03 20.02.18 290 (З) 50000 м    3/0 верхняя 
[Ci fib]
-13.3 -16 80 -15  1025.8  0.1  767  326  -13.3         
09 20.02.18 300 (СЗ) 20000 м  в посл. час ливневой снег  1/0 верхняя 
[Ci fib]
-10 -14.3 71 -12  1026.4  0.1  768  322           
15 20.02.18 310 (СЗ) 20000 м    3/0 средняя, верхняя 
[Ac trans|Ci fib]
-9.4 -12.9 76 -9  1026.4  -0.2  768  322      0.0     
21 20.02.18 тихо ()   50000 м    ясно 
-18.2 -20.6 81 -18  1027  0.2  768  333           
00 21.02.18 тихо ()   50000 м    5/0 средняя 
[Ac trans]
-17.1 -19.7 80 -17  1027.2  0.1  768  332           
03 21.02.18 290 (З) 50000 м    5/0 средняя, верхняя 
[Ac trans|Ci fib]
-17.2 -19.8 80 -17  1027.1  768  332  -19.7         
09 21.02.18 300 (СЗ) 20000 м    4/0 верхняя 
[Cs]
-13 -16.5 75 -15  1027.1  0.3  768  327           
12 21.02.18 280 (З) 20000 м    8/0 средняя, верхняя 
[Ac trans|Cc]
-9 -13.4 70 -9  1027.3  0.3  769  322           
15 21.02.18 280 (З) 20000 м    ясно 
-10.4 -14 75 -12  1027.2  -0.1  769  323           
18 21.02.18 290 (З) 50000 м    ясно 
-13.5 -15.8 83 -16  1027.7  0.5  769  327    -8.4       
21 21.02.18 тихо ()   50000 м    ясно 
-15.9 -18.2 82 -16  1028.6  0.8  770  331           
00 22.02.18 тихо ()   50000 м    ясно 
-17.7 -20.3 80 -18  1029.2  0.7  770  333           
09 22.02.18 280 (З) 20000 м    8/0 средняя, верхняя 
[Ac trans|Ci sp]
-13.5 -16.6 77 -17  1028.2  -0.2  769  327           
12 22.02.18 280 (З) 20000 м    9/0 средняя, верхняя 
[Ac trans|Ci sp]
-9.2 -14.2 67 -12  1026.8  -1.3  768  322           
03 23.02.18 300 (СЗ) 11000 м  слаб. ливневой снег  9/9 540 м кучево-дожд. 
[Cb cap]
-16.1 -18.6 81 -16  1027.3  0.3  769  331  -18.3    0.0     
09 23.02.18 030 (СВ) 20000 м    ясно 
-12.7 -17.2 69 -13  1029.3  770  327           
12 23.02.18 350 (С) 20000 м    4/0 средняя, верхняя 
[Ac trans|Ci fib]
-9 -14.9 62 -11  1029.5  0.2  770  322           
15 23.02.18 010 (С) 20000 м    4/0 верхняя 
[Ci fib]
-11.4 -16.5 66 -15  1030.2  0.7  771  326           
18 23.02.18 360 (С) 50000 м    ясно 
-13 -17.1 71 -15  1031.6  1.4  772  328    -8.6       
21 23.02.18 020 (С) 20000 м    ясно 
-14.8 -18.5 73 -18  1033.1  1.4  773  331           
00 24.02.18 320 (СЗ) н/о    н/о 
-16.9 -19.9 78 -17  1034.5  1.3  774  334           
09 24.02.18 020 (С) 20000 м    ясно 
-14 -19.6 63 -18  1036.9  0.1  776  331           
Время (UTC), дата Ветер
(°,м/с) 
Видим.   Явления Облачность Т
(°С)
Тd
(°С)
f(%) Тe
(°С)
Pmin
(гПа)
dP
(гПа)
Po
(мм)
O2
(г/м3)
Тmin Tmax R s Состояние
почвы

Для получения пояснительной информации подведите курсор к названию столбца.

ПОГОДА в Сортавале - архив

Всё, что Вы хотите узнать о погоде в Сортавале - удобно и подробно!

Выберите нужную дату (начиная с 1 января 2015* года) и нажмите кнопку "Найти".
Будут отображены архивные сводки погоды по пункту Сортавала, начиная с указанной даты.


Отображать данные в формате CSV (для использования в таблицах Excel)


Внимание! Наш архив погоды предназначен исключительно для личного некоммерческого использования в познавательных целях. Если Вам необходимы официальные справки о состоянии погоды (для производственных, юридических, коммерческих и т.п. целей), обращайтесь в органы Росгидромета.

*Примечание: данная дата относится к архиву по метеостанциям СССР (Россия, СНГ, Балтия).
Архив по метеостанциям Зарубежной Европы и Азии (кроме Китая) хранится 10 дней, по другим регионам земного шара (Китай, Африка, Америка, Австралия, Океания) - 1 день.

Сортавала - район местоположения метеостанции


Название, широта, долгота, высота метеостанции:
Сортавала 61.7°ш. 30.7°д. 19 м над ур. моря [Российская Федерация]

Дополнительная информация

В oтличие oт бoльшинства пoгoдных сайтoв мы публикуем пoдрoбную метеoинфoрмацию в детальнoм прoфессиoнальнoм фoрмате.

Характеристики температуры и влажнoсти вoздуха измеряются на высoте 2 м в тени вдали oт зданий и деревьев.
Скoрoсть ветра измеряется на высoте 10 м (на урoвне рoста челoвека скoрoсть ветра ниже в 1.5-2 раза). Если метеoстанция нахoдится в гoрoде или в лесу, тo скoрoсть ветра занижена на 2-4 м/с пo сравнению с oткрытым местoм. Скoрoсть ветра над акватoриями крупных рек и oзёр, а также на вершинах хoлмoв на 2-5 м/с выше, чем в oбычных услoвиях.
Атмoсфернoе давление в разных тoчках местнoсти мoжет значительнo oтличаться oт давления на метеoстанции, в зависимoсти oт услoвий рельефа (при пoдъёме на 10 м давление пoнижается примернo на 1 мм рт.ст.).